Location: ??
(35.5653°N, 139.6194°E)
Time: 12:37:37
(UTC+00:00)

Delta 2 Rocket - Pass Details

Date: 01 March 2020
Orbit: 416 x 808 km, 35.6° (Epoch: 03 April)

Event Time Altitude Azimuth Distance (km) Brightness Sun altitude
Exits shadow 19:42:53 41° 225° (SW) 752 3.6 -18.6°
Maximum altitude 19:44:00 60° 166° (SSE) 571 3.4 -18.3°
Drops below altitude 10° 19:47:37 10° 85° (E) 1,609 7.0 -17.6°
Sets 19:49:41 0° 82° (E) 2,439 8.4 -17.2°
